Temperature
13 14 14 14 13 13 13 13 13 13 13 13 12 12 12 13 13 13 13 13 13 13 13 13 13 13 13 13 13 13 13 13 13 14 13 14 14 14 14 14 15 15 16
14 14 14 14 13 13 13 13 13 13 13 13 12 12 12 12 12 12 12 12 12 12 12 12 12 12 12 12 12 12 13 13 13 14 14 14 14 14 14 14 14 15 15
14 14 14 13 13 13 13 13 13 13 13 13 12 12 12 12 12 12 12 11 11 11 11 11 11 11 11 11 12 12 13 13 13 13 13 13 14 14 14 14 14 14 14
14 14 13 13 13 13 13 13 13 13 13 13 12 11 11 11 11 11 11 11 11 11 11 11 11 11 11 11 11 12 12 12 12 12 12 12 13 13 13 13 14 14 14
13 13 13 13 13 13 13 12 12 12 13 13 12 11 11 11 11 11 11 11 11 11 11 11 11 11 11 11 11 11 11 11 11 12 12 12 12 12 12 13 13 13 14
12 12 12 13 13 13 12 12 12 12 12 12 12 12 12 11 11 11 11 11 11 10 11 11 11 11 11 11 11 11 11 11 11 11 11 12 11 12 12 12 13 13 13
12 12 12 12 12 13 12 12 12 12 12 12 12 12 12 12 11 11 11 11 11 11 11 11 11 11 11 11 11 11 11 11 11 11 11 11 11 11 11 12 12 12 12
12 12 12 12 12 12 12 12 12 12 12 12 11 12 12 11 11 11 11 11 11 11 11 11 11 11 11 11 11 11 11 12 11 11 11 11 11 11 11 11 11 12 12
12 12 12 11 11 11 11 12 12 12 11 11 11 11 11 11 11 11 11 11 11 11 11 11 11 10 10 11 11 11 11 11 11 11 11 11 12 12 12 11 12 12 11
11 11 11 11 11 11 11 11 11 11 11 11 11 11 11 11 11 11 11 11 11 11 10 10 10 10 10 10 10 11 11 11 11 12 12 12 12 12 12 12 12 11 11
11 11 10 10 10 10 10 10 11 11 11 11 11 11 10 10 10 10 10 10 10 10 10 10 9 9 9 9 10 10 10 10 10 11 11 11 11 11 12 12 12 12 11
10 10 10 10 10 10 10 10 10 11 10 10 10 10 10 10 10 10 10 10 10 9 9 9 9 9 9 9 9 9 9 9 10 10 10 11 11 11 11 11 12 11 11
10 10 10 10 10 10 10 10 10 10 10 10 10 10 10 10 9 9 9 9 9 9 9 8 8 9 9 9 8 8 9 9 9 9 9 9 10 10 10 11 11 12 12
9 9 9 9 9 9 10 10 10 10 9 9 10 10 10 9 9 9 8 8 9 8 8 8 8 8 8 8 8 8 8 8 8 8 8 8 9 9 9 10 10 11 11
9 8 8 9 9 9 9 9 10 10 10 10 10 9 9 9 9 8 8 9 9 9 9 8 8 8 8 8 8 7 7 7 7 7 7 7 7 8 8 8 9 9 10
9 8 8 8 8 9 9 9 9 10 9 9 9 9 9 9 9 9 9 9 8 8 8 8 8 8 7 7 7 7 7 6 6 6 6 6 6 6 7 7 7 8 8
9 9 8 8 8 8 9 9 9 9 9 9 8 8 9 9 9 9 8 8 8 8 8 8 7 7 7 7 7 6 6 6 5 5 5 5 5 5 5 5 6 6 6
9 9 9 8 8 8 8 8 9 9 9 9 9 9 9 9 9 9 9 8 8 8 8 7 7 7 7 6 6 6 5 5 5 4 4 4 4 4 4 5 5 5 5
9 9 9 9 8 8 8 8 8 9 9 9 9 9 9 9 9 9 9 9 8 8 8 7 7 7 7 6 6 6 5 5 4 4 4 4 3 3 3 3 4 4 4
9 9 9 9 9 9 8 9 9 9 9 9 9 9 9 9 9 9 9 9 8 8 8 7 7 7 7 6 6 5 5 4 4 4 3 3 3 3 3 3 3 3 3
9 9 9 9 9 9 9 9 9 9 9 9 10 10 9 9 9 9 9 9 8 8 8 7 7 7 7 6 6 5 5 4 4 3 3 3 2 3 3 2 2 2 2
9 9 9 9 10 10 10 10 10 10 10 10 10 10 10 10 9 9 9 9 8 8 8 7 7 7 6 6 6 5 5 4 4 3 3 2 2 2 2 2 2 2 2
10 10 9 10 10 10 10 10 10 10 10 10 10 10 10 10 9 9 9 9 9 8 8 7 7 7 7 6 6 5 5 4 4 3 2 2 2 2 2 2 2 1 2
11 10 10 10 10 10 10 11 10 10 10 11 11 11 10 10 10 10 10 9 9 8 8 7 7 7 7 6 6 5 5 4 3 3 2 2 1 1 1 1 1 1 1
11 11 11 11 11 11 11 11 11 11 11 11 11 11 10 10 10 10 10 10 9 9 8 7 7 7 6 6 5 5 4 4 3 2 2 2 1 1 1 1 1 1 1
11 11 11 11 11 11 11 11 11 11 11 11 11 11 11 11 11 10 10 10 10 9 8 7 7 7 6 6 5 4 4 3 3 2 2 1 1 1 0 0 0 0 0
Wind_Speed
8 7 8 10 7 5 4 5 5 4 4 5 5 4 3 3 4 4 4 4 5 5 5 6 7 6 5 5 5 4 3 2 4 4 3 4 4 5 3 3 4 3 1
6 9 10 10 6 4 5 5 4 5 5 5 4 4 2 3 3 5 6 6 8 8 7 7 6 5 5 5 4 4 3 2 2 4 3 2 3 4 4 3 4 3 2
7 9 9 9 7 5 7 6 6 7 7 6 6 5 4 4 4 5 6 7 7 7 7 6 5 5 5 5 6 5 5 4 2 2 2 2 2 2 3 3 3 4 3
5 7 6 7 7 4 7 8 8 8 7 6 5 5 5 5 5 6 7 7 6 6 5 4 4 4 4 5 6 7 7 7 5 3 2 2 3 2 3 3 2 3 3
4 4 3 4 5 5 7 9 8 7 7 6 6 6 6 5 5 6 6 6 6 6 6 6 5 6 4 3 3 5 6 5 5 4 4 4 4 4 3 2 2 2 2
3 2 4 4 4 5 6 8 7 7 7 7 7 7 7 6 7 9 8 7 7 7 7 7 8 9 8 7 7 6 5 5 6 5 5 4 6 5 5 3 0 2 2
4 2 3 4 4 5 8 9 8 6 6 7 6 6 7 5 8 12 11 8 7 6 6 7 8 8 8 7 9 10 10 9 7 4 4 5 5 5 7 5 4 2 1
5 4 3 4 5 6 8 9 7 6 7 6 5 5 6 5 8 14 12 7 6 6 6 6 7 8 9 7 7 10 10 10 9 6 5 5 4 6 5 3 3 3 4
3 4 4 4 6 7 5 4 4 5 5 5 6 6 6 6 5 11 9 5 5 6 7 7 7 8 11 13 11 10 10 10 8 9 7 7 8 8 8 4 4 3 3
4 4 4 4 5 5 5 2 2 5 6 7 7 6 7 7 6 5 7 4 4 5 5 7 9 9 10 12 9 8 9 9 9 10 11 11 11 11 11 8 4 2 1
4 3 3 4 4 4 4 2 4 8 9 8 8 6 6 6 7 8 7 4 5 5 5 5 6 8 10 11 9 6 4 6 5 7 7 8 9 10 9 8 7 4 3
4 4 4 5 5 3 4 4 6 10 10 7 8 6 4 5 8 10 12 9 5 5 4 4 4 6 9 8 8 8 9 6 6 6 7 8 8 8 9 8 6 5 4
6 5 4 4 4 4 4 4 6 8 8 7 7 6 4 4 5 10 13 11 9 5 3 4 5 7 7 6 9 9 8 7 7 7 7 7 6 6 7 7 8 4 2
6 5 4 4 4 4 4 4 5 7 7 5 6 6 5 5 4 5 5 5 6 5 4 5 5 5 7 7 6 7 7 6 6 6 6 6 7 8 10 9 7 7 6
8 7 5 4 4 4 4 2 4 5 8 8 7 7 6 5 4 5 5 4 2 2 2 2 3 4 5 5 5 5 6 7 7 6 6 6 7 8 9 10 8 8 8
9 8 7 6 5 4 4 5 7 4 7 9 11 9 4 5 9 8 5 3 3 2 2 2 3 3 3 4 4 5 6 7 7 7 6 6 6 7 7 7 8 9 9
10 9 8 7 6 5 4 6 6 6 8 8 11 11 9 7 8 6 4 2 3 2 2 2 2 2 2 2 2 3 3 4 5 5 6 6 6 6 6 6 7 7 8
9 10 9 9 8 7 6 6 6 7 6 4 4 4 6 8 7 6 6 4 1 1 2 2 2 2 2 1 1 2 2 3 4 5 6 6 6 6 6 7 7 8 8
10 8 8 8 8 8 7 7 6 5 5 4 3 2 4 6 5 5 5 2 2 2 4 4 4 3 3 2 1 0 1 2 3 4 5 5 6 6 6 7 7 7 8
10 11 10 8 8 8 7 8 7 7 6 6 6 5 5 4 3 3 3 3 3 4 5 5 5 4 3 3 2 2 1 1 0 2 3 4 4 5 6 7 7 7 8
10 11 11 9 8 8 9 9 9 8 8 8 8 7 9 7 6 6 4 4 5 6 6 6 6 5 4 4 4 4 4 3 2 0 1 2 4 4 5 5 5 6 7
11 11 11 11 10 9 9 9 9 9 10 10 9 7 9 7 7 7 7 7 7 7 6 6 6 6 6 6 6 5 5 5 3 3 2 2 3 4 4 5 5 6 6
12 13 12 11 10 10 9 8 8 8 9 10 10 8 7 8 8 9 9 9 7 6 6 6 7 8 7 7 8 7 6 6 4 4 2 1 2 3 4 4 5 6 7
14 15 14 13 12 11 10 9 9 10 9 9 9 9 9 9 9 10 11 10 8 7 6 7 8 10 9 9 9 9 9 6 5 5 3 1 1 2 3 4 5 6 7
15 15 15 14 13 12 12 11 10 10 10 10 10 10 10 9 10 10 10 9 9 8 7 7 7 10 12 12 11 10 10 9 9 7 4 2 1 1 3 4 5 6 7
16 15 14 14 13 12 12 12 12 11 11 11 11 11 12 11 11 11 9 8 9 9 8 6 9 12 13 12 11 11 11 12 11 9 5 3 2 1 2 4 5 6 7
Wind_Direction
180 170 156 129 132 151 140 121 114 104 102 104 97 82 47 18 21 14 7 13 31 24 29 48 48 41 25 14 352 326 300 231 246 256 240 259 269 276 231 208 221 209 250
179 156 143 122 124 109 88 75 73 77 80 83 84 74 41 20 19 21 18 22 31 34 39 46 43 50 50 42 14 358 330 315 258 281 277 268 269 269 247 218 221 219 209
161 131 129 130 127 118 90 68 67 76 70 67 71 66 50 44 43 42 51 54 56 46 34 33 26 38 43 32 20 5 342 335 315 288 309 322 292 297 280 243 223 219 216
140 129 120 130 137 144 112 100 96 99 100 97 85 68 46 40 50 54 72 77 58 41 24 17 19 22 23 21 15 8 1 357 359 342 338 307 298 314 296 269 237 215 211
61 122 153 145 144 147 119 114 107 99 99 96 79 63 52 47 50 70 86 78 51 39 23 16 29 36 38 20 5 9 8 6 9 14 3 354 349 333 306 274 229 183 212
61 119 179 165 153 125 125 119 105 97 87 74 64 62 59 51 64 84 91 83 66 52 32 10 21 29 25 24 23 31 36 26 19 21 16 5 346 337 328 325 249 171 209
107 120 144 145 133 106 126 130 128 113 99 78 68 77 76 67 92 96 95 89 69 49 36 24 34 30 25 18 18 33 43 44 32 12 13 4 337 337 333 356 9 28 47
92 93 98 95 106 116 124 137 143 126 110 88 60 63 77 67 104 103 92 79 68 51 42 35 44 43 30 18 28 35 30 28 17 15 2 349 336 329 332 343 5 40 43
121 98 100 107 95 94 109 145 145 126 109 86 59 62 73 53 67 102 94 80 71 55 44 37 36 36 19 25 36 32 27 15 5 27 26 11 359 7 3 3 31 57 82
158 130 120 113 118 140 144 146 104 117 117 102 83 68 77 65 36 86 97 89 74 63 48 34 37 37 29 31 40 33 29 360 357 24 19 12 8 14 24 18 348 7 97
148 127 122 135 131 144 133 97 111 119 112 100 88 68 68 77 63 68 89 93 96 88 73 45 23 39 50 36 35 35 0 326 356 36 30 20 15 18 12 4 356 334 334
147 159 167 148 136 136 121 106 117 120 117 114 107 90 62 68 79 75 73 72 80 83 65 42 20 29 64 49 33 23 17 12 16 27 29 23 21 16 355 343 346 348 353
163 174 163 121 115 108 113 127 130 139 143 144 134 133 138 117 96 82 72 63 55 58 51 35 16 28 38 40 23 25 39 41 30 24 18 9 355 347 343 345 359 8 359
162 162 147 142 143 113 107 131 146 157 153 151 153 154 153 138 117 97 81 65 51 40 19 17 23 28 44 36 25 34 45 50 48 35 17 7 3 10 16 14 9 6 11
167 165 155 141 138 119 103 126 168 169 174 170 168 163 158 138 132 118 106 94 60 13 15 14 29 46 56 55 57 52 51 52 51 42 32 30 28 28 27 21 21 27 34
172 174 165 148 136 132 130 92 50 95 140 153 152 150 132 131 145 146 148 118 62 51 71 73 79 78 81 74 69 58 46 42 36 32 32 28 32 33 28 33 35 37 30
176 174 169 161 154 154 148 140 122 84 83 118 143 142 134 142 151 161 170 110 59 81 112 125 124 126 114 84 62 53 37 19 14 20 21 16 10 11 12 14 24 32 34
173 169 170 172 169 172 171 165 153 146 140 123 125 135 138 129 144 165 155 135 89 96 161 182 184 175 181 180 104 47 30 23 32 29 22 17 18 19 21 15 14 13 11
175 175 175 178 180 177 175 171 167 165 165 161 165 182 141 122 122 132 153 181 191 194 194 205 203 191 199 203 181 126 46 48 42 28 23 21 22 22 19 9 0 359 357
183 178 177 181 182 181 181 178 177 180 184 189 200 197 163 154 184 182 183 192 205 211 205 209 209 205 208 214 208 200 206 231 359 26 25 20 20 24 22 18 17 11 7
184 185 184 188 193 193 194 197 196 192 197 206 223 212 181 192 213 210 207 209 218 221 218 220 220 216 210 211 208 208 217 231 226 243 346 355 1 9 12 8 5 5 1
184 187 191 198 199 198 200 202 202 204 209 215 230 227 187 210 225 215 213 219 222 223 227 230 235 232 221 213 212 212 220 226 222 224 256 322 345 354 357 358 356 353 353
187 190 194 200 201 202 202 200 200 205 213 218 226 218 202 214 218 219 219 221 219 213 217 223 234 236 228 219 219 217 223 227 223 212 224 284 336 349 349 349 350 345 345
193 194 196 201 204 204 207 207 210 215 219 223 223 216 213 214 217 221 221 220 216 211 209 216 222 230 226 223 225 225 226 225 208 196 201 238 318 337 336 337 337 333 332
199 198 199 201 202 205 207 211 215 217 218 219 219 220 220 219 222 227 224 219 217 213 213 217 216 223 228 226 224 222 216 205 191 182 179 192 242 315 328 332 335 334 334
204 207 206 204 202 203 206 207 211 213 215 218 218 218 220 223 225 228 222 212 215 211 212 219 219 217 221 219 215 206 197 188 182 180 177 187 219 273 316 326 329 330 328
Height
1471 1474 1478 1479 1483 1486 1485 1483 1483 1485 1485 1486 1488 1489 1489 1489 1487 1488 1488 1487 1485 1484 1483 1483 1482 1481 1481 1481 1480 1480 1478 1476 1475 1475 1475 1475 1474 1473 1471 1471 1471 1472 1471
1469 1473 1476 1478 1481 1483 1482 1480 1481 1482 1484 1486 1487 1487 1488 1487 1486 1485 1485 1485 1485 1485 1485 1483 1481 1479 1480 1479 1480 1478 1476 1474 1474 1473 1474 1474 1472 1471 1470 1468 1468 1468 1467
1471 1471 1472 1475 1477 1479 1480 1480 1480 1481 1484 1487 1487 1486 1486 1486 1485 1485 1485 1487 1487 1486 1485 1484 1483 1480 1479 1478 1479 1478 1475 1472 1471 1471 1471 1471 1469 1467 1467 1466 1464 1465 1465
1473 1472 1474 1475 1476 1480 1481 1481 1481 1483 1486 1488 1487 1486 1487 1487 1486 1487 1487 1489 1489 1487 1487 1485 1483 1482 1481 1480 1479 1476 1474 1472 1470 1470 1468 1467 1465 1462 1461 1461 1461 1462 1462
1472 1472 1475 1477 1479 1481 1482 1482 1484 1486 1486 1487 1486 1487 1488 1491 1491 1491 1490 1491 1490 1488 1489 1488 1485 1484 1483 1482 1481 1477 1475 1474 1471 1469 1468 1465 1464 1461 1458 1457 1457 1459 1459
1473 1476 1477 1478 1480 1482 1485 1486 1488 1488 1489 1488 1488 1491 1492 1494 1493 1494 1494 1494 1492 1491 1491 1491 1488 1486 1485 1484 1482 1479 1478 1476 1474 1470 1469 1467 1464 1461 1457 1454 1453 1456 1458
1475 1476 1476 1476 1478 1481 1485 1488 1489 1490 1491 1490 1492 1494 1494 1495 1495 1495 1495 1495 1495 1495 1494 1493 1491 1489 1488 1487 1484 1481 1479 1477 1475 1473 1471 1468 1465 1462 1459 1455 1453 1454 1456
1475 1475 1476 1477 1479 1481 1483 1485 1488 1489 1491 1493 1494 1495 1496 1496 1497 1498 1497 1496 1497 1497 1496 1495 1494 1492 1491 1489 1486 1483 1481 1479 1477 1476 1474 1471 1468 1465 1462 1459 1455 1455 1457
1475 1476 1478 1478 1479 1480 1483 1484 1487 1489 1490 1492 1494 1496 1497 1498 1499 1499 1499 1500 1499 1497 1497 1496 1495 1494 1493 1490 1488 1486 1484 1482 1480 1479 1477 1474 1471 1468 1466 1464 1462 1460 1459
1473 1476 1477 1478 1479 1481 1483 1485 1486 1488 1489 1492 1495 1497 1497 1499 1500 1501 1501 1501 1499 1498 1498 1497 1496 1495 1494 1491 1490 1488 1486 1484 1482 1481 1479 1476 1473 1470 1468 1466 1464 1464 1462
1473 1475 1476 1477 1479 1481 1482 1484 1486 1487 1489 1492 1495 1497 1498 1499 1500 1501 1501 1500 1498 1497 1498 1497 1496 1494 1493 1491 1490 1488 1487 1486 1484 1482 1479 1477 1474 1472 1470 1468 1466 1464 1464
1471 1473 1475 1476 1478 1480 1482 1483 1485 1486 1489 1492 1495 1497 1499 1500 1500 1500 1500 1499 1499 1498 1498 1497 1495 1493 1492 1491 1490 1488 1487 1486 1484 1482 1479 1477 1476 1474 1473 1471 1469 1467 1465
1469 1471 1473 1475 1477 1479 1480 1482 1484 1487 1490 1492 1494 1496 1498 1498 1499 1498 1498 1499 1499 1498 1497 1496 1495 1493 1491 1490 1489 1488 1487 1485 1483 1481 1479 1478 1477 1475 1473 1471 1470 1468 1467
1466 1469 1471 1474 1476 1478 1479 1481 1484 1486 1487 1489 1491 1494 1495 1496 1496 1496 1497 1497 1497 1496 1495 1495 1494 1493 1492 1491 1490 1488 1486 1485 1484 1482 1480 1479 1477 1475 1473 1471 1469 1467 1465
1463 1466 1469 1471 1473 1475 1476 1479 1482 1483 1485 1486 1489 1491 1492 1493 1495 1495 1495 1495 1495 1495 1494 1494 1494 1493 1492 1491 1490 1488 1487 1485 1484 1482 1481 1480 1478 1476 1474 1472 1469 1467 1465
1460 1462 1465 1468 1470 1472 1474 1477 1480 1482 1484 1486 1488 1490 1492 1493 1494 1494 1494 1494 1493 1493 1493 1493 1494 1493 1492 1491 1490 1489 1487 1485 1484 1483 1481 1479 1478 1476 1474 1472 1471 1469 1466
1456 1458 1461 1464 1468 1470 1472 1475 1477 1480 1482 1485 1487 1490 1491 1492 1493 1493 1493 1492 1492 1492 1492 1493 1493 1493 1492 1491 1490 1489 1487 1486 1484 1482 1480 1479 1477 1475 1473 1472 1470 1469 1467
1453 1455 1457 1460 1464 1468 1471 1473 1476 1478 1481 1484 1486 1488 1490 1492 1492 1492 1492 1492 1492 1492 1492 1493 1493 1493 1492 1492 1491 1489 1488 1486 1484 1482 1481 1479 1476 1475 1473 1472 1471 1469 1467
1450 1453 1455 1458 1462 1465 1468 1471 1474 1477 1479 1482 1484 1486 1488 1490 1491 1491 1491 1492 1492 1492 1493 1493 1492 1492 1492 1492 1491 1489 1488 1487 1485 1483 1481 1479 1476 1475 1473 1472 1470 1469 1467
1447 1451 1454 1457 1461 1464 1466 1469 1472 1475 1478 1480 1482 1484 1486 1487 1489 1489 1490 1490 1491 1491 1491 1491 1491 1491 1491 1491 1490 1489 1488 1487 1485 1483 1481 1479 1477 1475 1473 1471 1470 1468 1467
1442 1447 1451 1455 1459 1462 1465 1468 1470 1473 1475 1478 1479 1481 1483 1484 1486 1487 1488 1488 1489 1489 1489 1489 1489 1489 1489 1489 1488 1487 1487 1486 1484 1483 1481 1479 1477 1475 1472 1471 1469 1468 1466
1437 1442 1447 1451 1454 1458 1461 1464 1467 1469 1472 1474 1476 1478 1479 1480 1482 1483 1484 1485 1486 1486 1486 1486 1487 1486 1486 1486 1485 1485 1485 1484 1483 1481 1480 1478 1477 1475 1472 1470 1469 1467 1466
1432 1437 1441 1445 1449 1452 1456 1459 1462 1465 1467 1469 1471 1473 1474 1475 1477 1478 1479 1480 1481 1482 1482 1482 1482 1482 1482 1482 1482 1482 1482 1481 1481 1480 1478 1477 1475 1473 1471 1469 1468 1467 1465
1426 1430 1434 1438 1442 1446 1449 1453 1456 1459 1462 1464 1466 1467 1469 1470 1472 1473 1474 1475 1476 1477 1477 1477 1477 1477 1477 1478 1478 1478 1478 1478 1477 1477 1476 1475 1473 1471 1469 1468 1466 1465 1464
1419 1423 1427 1431 1435 1438 1442 1446 1449 1452 1455 1457 1459 1461 1463 1465 1466 1467 1468 1469 1471 1471 1472 1473 1473 1472 1472 1473 1474 1474 1474 1474 1474 1473 1472 1471 1470 1469 1468 1466 1465 1463 1461
1410 1415 1420 1424 1427 1431 1434 1437 1441 1445 1447 1450 1452 1453 1455 1458 1459 1461 1462 1464 1465 1466 1467 1468 1468 1468 1468 1469 1469 1470 1470 1470 1470 1469 1469 1468 1467 1466 1465 1464 1462 1460 1459